Date String (YYYY-MM-DD hh:mm:ss) UTC,Instrument flags,Ambient pressure (hPa),Sample flow (lpm),Bypass flow (lpm),Sample temperature (°C),Ambient temperature (°C),ASC tube jacket temperature (°C),LED temperature (°C),Box temperature (°C),Sample RH (%),Span deviation,Mass concentration (μg/m³),Mass concentration (μg/m³),Mass concentration (μg/m³)
DateTimeUTC,F1_M11,P_M11,Q1_M11,Q2_M11,T1_M11,T2_M11,T3_M11,T4_M11,T5_M11,U1_M11,ZSPAN_M11,X0_M11,X2_M11,X1_M11
2022-04-15 09:00:00,,0816.7,4.99,0.00,22.5,21.6,00.0,31.4,24.3,07.2,0000.0,0007.68,0003.62,0002.18
2022-04-15 09:01:00,,0816.5,4.99,0.00,22.5,21.6,00.0,31.4,24.3,07.2,0000.0,0008.04,0003.62,0002.19
2022-04-15 09:02:00,,0816.6,5.01,0.00,22.5,21.6,00.0,31.4,24.3,07.3,0000.0,0008.38,0003.57,0002.18
2022-04-15 09:03:00,,0816.5,5.01,0.00,22.5,21.6,00.0,31.4,24.3,07.2,0000.0,0008.30,0003.51,0002.15
2022-04-15 09:04:00,,0816.7,5.01,0.00,22.5,21.6,00.0,31.4,24.3,07.2,0000.0,0008.27,0003.54,0002.14
2022-04-15 09:05:00,,0816.7,4.99,0.00,22.5,21.6,00.0,31.4,24.3,07.1,0000.0,0008.22,0003.52,0002.12
2022-04-15 09:06:00,,0816.6,4.99,0.00,22.5,21.6,00.0,31.4,24.3,07.1,0000.0,0008.20,0003.54,0002.11
2022-04-15 09:07:00,,0816.5,5.00,0.00,22.5,21.6,00.0,31.5,24.4,07.0,0000.0,0007.97,0003.44,0002.06
2022-04-15 09:08:00,,0816.6,5.01,0.00,22.5,21.6,00.0,31.5,24.4,07.0,0000.0,0007.82,0003.36,0002.04
2022-04-15 09:09:00,,0816.5,5.00,0.00,22.6,21.6,00.0,31.5,24.4,07.0,0000.0,0007.74,0003.33,0002.04
2022-04-15 09:10:00,,0816.6,4.99,0.00,22.6,21.6,00.0,31.5,24.4,07.1,0000.0,0007.88,0003.31,0002.02
2022-04-15 09:11:00,,0816.5,5.01,0.00,22.6,21.6,00.0,31.5,24.4,07.2,0000.0,0008.38,0003.30,0002.02
2022-04-15 09:12:00,,0816.5,5.00,0.00,22.6,21.6,00.0,31.5,24.4,07.3,0000.0,0008.17,0003.31,0002.00
2022-04-15 09:13:00,,0816.5,5.00,0.00,22.6,21.6,00.0,31.5,24.4,07.3,0000.0,0007.94,0003.39,0002.00
2022-04-15 09:14:00,,0816.5,5.00,0.00,22.6,21.6,00.0,31.5,24.4,07.2,0000.0,0009.06,0003.47,0002.01
2022-04-15 09:15:00,,0816.5,5.00,0.00,22.6,21.6,00.0,31.5,24.4,07.1,0000.0,0009.37,0003.44,0001.99
2022-04-15 09:16:00,,0816.5,5.00,0.00,22.6,21.6,00.0,31.5,24.4,07.1,0000.0,0009.57,0003.48,0001.99
2022-04-15 09:17:00,,0816.4,4.99,0.00,22.6,21.6,00.0,31.5,24.4,07.1,0000.0,0009.61,0003.49,0001.99
2022-04-15 09:18:00,,0816.4,5.00,0.00,22.6,21.7,00.0,31.5,24.4,07.1,0000.0,0009.70,0003.52,0002.00
2022-04-15 09:19:00,,0816.4,5.00,0.00,22.6,21.7,00.0,31.5,24.4,07.1,0000.0,0009.64,0003.52,0002.01
2022-04-15 09:20:00,,0816.4,5.00,0.00,22.6,21.6,00.0,31.5,24.4,07.1,0000.0,0009.61,0003.50,0002.00
2022-04-15 09:21:00,,0816.6,5.02,0.00,22.6,21.6,00.0,31.5,24.3,07.2,0000.0,0009.83,0003.54,0002.00
2022-04-15 09:22:00,,0816.4,4.99,0.00,22.5,21.6,00.0,31.5,24.3,07.2,0000.0,0009.32,0003.53,0001.99
2022-04-15 09:23:00,,0816.4,4.99,0.00,22.5,21.6,00.0,31.5,24.3,07.2,0000.0,0009.25,0003.54,0002.00
2022-04-15 09:24:00,,0816.4,5.01,0.00,22.5,21.6,00.0,31.5,24.3,07.3,0000.0,0009.11,0003.48,0002.00
2022-04-15 09:25:00,,0816.4,4.99,0.00,22.5,21.6,00.0,31.5,24.3,07.2,0000.0,0008.82,0003.49,0001.99
2022-04-15 09:26:00,,0816.4,4.99,0.00,22.6,21.6,00.0,31.5,24.3,07.2,0000.0,0008.80,0003.51,0002.00
2022-04-15 09:27:00,,0816.4,5.00,0.00,22.6,21.6,00.0,31.5,24.3,07.2,0000.0,0009.38,0003.55,0002.03
2022-04-15 09:28:00,,0816.4,5.00,0.00,22.6,21.6,00.0,31.5,24.4,07.1,0000.0,0010.46,0003.56,0002.02
2022-04-15 09:29:00,,0816.4,5.00,0.00,22.6,21.6,00.0,31.5,24.4,07.1,0000.0,0010.93,0003.53,0002.00
2022-04-15 09:30:00,,0816.4,4.99,0.00,22.6,21.6,00.0,31.5,24.4,07.1,0000.0,0011.54,0003.54,0001.98
2022-04-15 09:31:00,,0816.4,5.00,0.00,22.6,21.6,00.0,31.5,24.4,07.1,0000.0,0011.67,0003.56,0001.98
2022-04-15 09:32:00,,0816.3,5.00,0.00,22.6,21.6,00.0,31.5,24.4,07.1,0000.0,0011.50,0003.55,0001.98
2022-04-15 09:33:00,,0816.3,5.00,0.00,22.6,21.7,00.0,31.5,24.4,07.1,0000.0,0011.52,0003.55,0001.99
2022-04-15 09:34:00,,0816.3,5.02,0.00,22.6,21.7,00.0,31.5,24.4,07.1,0000.0,0011.53,0003.55,0001.98
2022-04-15 09:35:00,,0816.3,5.00,0.00,22.6,21.7,00.0,31.5,24.4,07.1,0000.0,0011.51,0003.55,0001.97
2022-04-15 09:36:00,,0816.3,5.00,0.00,22.6,21.7,00.0,31.5,24.4,07.2,0000.0,0011.11,0003.51,0001.98
2022-04-15 09:37:00,,0816.2,4.99,0.00,22.6,21.7,00.0,31.5,24.4,07.2,0000.0,0010.53,0003.48,0001.95
2022-04-15 09:38:00,,0816.2,4.99,0.00,22.6,21.7,00.0,31.5,24.4,07.2,0000.0,0009.78,0003.38,0001.93
2022-04-15 09:39:00,,0816.2,5.00,0.00,22.6,21.7,00.0,31.5,24.4,07.1,0000.0,0009.00,0003.32,0001.95
2022-04-15 09:40:00,,0816.2,5.01,0.00,22.6,21.7,00.0,31.5,24.4,07.1,0000.0,0008.56,0003.32,0001.96
2022-04-15 09:41:00,,0816.2,5.00,0.00,22.6,21.7,00.0,31.5,24.4,07.1,0000.0,0007.85,0003.31,0001.99
2022-04-15 09:42:00,,0816.2,5.01,0.00,22.6,21.7,00.0,31.5,24.4,07.1,0000.0,0007.76,0003.29,0002.01
2022-04-15 09:43:00,,0816.2,5.00,0.00,22.6,21.7,00.0,31.5,24.4,07.1,0000.0,0007.85,0003.28,0002.01
2022-04-15 09:44:00,,0816.2,5.00,0.00,22.6,21.7,00.0,31.5,24.4,07.1,0000.0,0008.02,0003.28,0002.02
2022-04-15 09:45:00,,0816.3,5.00,0.00,22.6,21.7,00.0,31.5,24.4,07.1,0000.0,0007.97,0003.26,0002.04
2022-04-15 09:46:00,,0816.2,5.00,0.00,22.6,21.7,00.0,31.6,24.4,07.1,0000.0,0007.99,0003.26,0002.05
2022-04-15 09:47:00,,0816.2,5.00,0.00,22.6,21.7,00.0,31.6,24.4,07.1,0000.0,0008.18,0003.31,0002.06
2022-04-15 09:48:00,,0816.1,5.00,0.00,22.6,21.7,00.0,31.6,24.4,07.1,0000.0,0008.11,0003.32,0002.10
2022-04-15 09:49:00,,0816.1,5.01,0.00,22.6,21.6,00.0,31.6,24.4,07.1,0000.0,0008.06,0003.36,0002.11
2022-04-15 09:50:00,,0816.1,5.00,0.00,22.6,21.6,00.0,31.6,24.4,07.1,0000.0,0007.71,0003.40,0002.12
2022-04-15 09:51:00,,0816.1,4.99,0.00,22.6,21.6,00.0,31.6,24.4,07.1,0000.0,0007.67,0003.40,0002.13
2022-04-15 09:52:00,,0816.2,5.00,0.00,22.6,21.6,00.0,31.5,24.4,07.1,0000.0,0008.11,0003.42,0002.14
2022-04-15 09:53:00,,0816.4,5.00,0.00,22.6,21.6,00.0,31.6,24.4,07.1,0000.0,0008.24,0003.42,0002.12
2022-04-15 09:54:00,,0816.4,5.00,0.00,22.6,21.7,00.0,31.6,24.4,07.0,0000.0,0008.31,0003.44,0002.14
2022-04-15 09:55:00,,0816.3,4.99,0.00,22.6,21.7,00.0,31.6,24.4,07.0,0000.0,0007.89,0003.46,0002.14
2022-04-15 09:56:00,,0816.4,4.99,0.00,22.6,21.7,00.0,31.6,24.4,07.0,0000.0,0007.92,0003.47,0002.13
2022-04-15 09:57:00,,0816.3,5.01,0.00,22.6,21.7,00.0,31.6,24.4,07.0,0000.0,0008.16,0003.47,0002.13
2022-04-15 09:58:00,,0816.1,5.01,0.00,22.6,21.7,00.0,31.6,24.4,07.0,0000.0,0008.10,0003.47,0002.15
2022-04-15 09:59:00,,0816.1,4.99,0.00,22.6,21.7,00.0,31.6,24.4,07.0,0000.0,0007.97,0003.42,0002.14
